DJ3OW-13 Weather Reports


time (UTC)temp
C
wind
direction
speed
KPH
gust
KPH
rain 1hr
cm
rain 24hr
cm
rain mn
cm
humidity
%
barometer
mb
20260506192102 9 297 1.6 3.2 0.00 2.54 2.26 99 1009.0
20260506191100 9 293 1.6 6.4 0.00 2.54 2.26 99 1008.9
20260506190058 9 272 4.8 11.3 0.00 2.54 2.26 99 1008.8
20260506185056 9 267 4.8 9.7 0.00 2.54 2.26 99 1008.7
20260506184054 9 275 3.2 6.4 0.00 2.54 2.26 99 1008.5
20260506183052 9 266 3.2 6.4 0.00 2.54 2.26 99 1008.5
20260506182050 9 264 4.8 9.7 0.00 2.54 2.26 99 1008.3
20260506181108 9 285 3.2 6.4 0.00 2.54 2.26 99 1008.3
20260506180045 10 274 4.8 11.3 0.00 2.54 2.26 99 1008.3
20260506175124 10 240 4.8 11.3 0.00 2.54 2.26 99 1008.2
20260506174102 10 267 4.8 12.9 0.00 2.54 2.26 99 1008.1
20260506173040 10 249 3.2 11.3 0.00 2.54 2.26 99 1008.2
20260506172038 10 262 3.2 12.9 0.00 2.54 2.26 98 1008.1
20260506171035 10 257 3.2 6.4 0.00 2.54 2.26 98 1008.0
20260506170033 10 258 3.2 11.3 0.00 2.54 2.26 98 1008.0
20260506165032 10 263 4.8 11.3 0.00 2.54 2.26 98 1008.0
20260506164110 10 261 3.2 6.4 0.00 2.54 2.26 98 1008.0
20260506163027 10 259 1.6 6.4 0.00 2.54 2.26 98 1008.0
20260506162025 10 244 3.2 11.3 0.00 2.54 2.26 98 1007.8
20260506161043 10 251 3.2 9.7 0.00 2.54 2.26 99 1007.9
20260506160021 10 245 3.2 9.7 0.00 2.54 2.26 98 1007.8
20260506155019 10 251 4.8 11.3 0.00 2.54 2.26 99 1008.0
20260506154017 10 257 1.6 6.4 0.00 2.54 2.26 99 1007.9
20260506153015 10 265 1.6 6.4 0.00 2.54 2.26 99 1007.9
20260506152114 10 256 4.8 9.7 0.00 2.54 2.26 99 1007.9
20260506151112 10 256 4.8 9.7 0.00 2.54 2.26 99 1007.8
20260506150130 10 260 3.2 9.7 0.00 2.54 2.26 99 1007.7
20260506145107 10 251 4.8 11.3 0.00 2.54 2.26 99 1007.6
20260506144106 10 259 3.2 11.3 0.03 2.54 2.26 99 1007.8
20260506143104 10 253 3.2 11.3 0.03 2.54 2.26 99 1007.9
20260506142101 10 241 3.2 6.4 0.03 2.54 2.26 99 1007.9
20260506141119 10 242 3.2 6.4 0.03 2.54 2.26 99 1007.8
20260506140057 10 240 3.2 6.4 0.05 2.54 2.26 99 1007.9
20260506135115 10 253 4.8 6.4 0.10 2.54 2.26 99 1007.8
20260506134053 10 260 3.2 9.7 0.10 2.51 2.21 99 1007.8
20260506133112 10 259 3.2 6.4 0.13 2.51 2.21 99 1007.8
20260506132049 10 257 1.6 6.4 0.13 2.51 2.21 99 1007.8
20260506131047 11 248 0.0 3.2 0.13 2.51 2.21 99 1007.8
20260506130045 10 0.0 3.2 0.10 2.49 2.18 99 1007.8
20260506125043 10 0.0 3.2 0.05 2.46 2.16 99 1007.8
20260506124041 10 0.0 3.2 0.03 2.44 2.13 99 1007.8
20260506123039 10 0.0 0.0 0.00 2.39 2.11 99 1007.7
20260506122037 10 270 0.0 3.2 0.00 2.39 2.11 99 1007.6
20260506121035 10 270 0.0 3.2 0.00 2.39 2.11 99 1007.5
20260506120033 10 0.0 0.0 0.00 2.39 2.11 99 1007.5
20260506115031 10 0.0 0.0 0.00 2.39 2.11 99 1007.5
20260506114029 10 0.0 3.2 0.00 2.39 2.11 99 1007.5
20260506113027 10 270 0.0 3.2 0.03 2.39 2.11 99 1007.5
20260506112025 10 0.0 3.2 0.03 2.39 2.11 99 1007.6
20260506111023 10 0.0 3.2 0.03 2.39 2.11 99 1007.5
20260506110021 10 0.0 0.0 0.05 2.39 2.11 99 1007.4
20260506105039 10 0.0 3.2 0.05 2.39 2.11 99 1007.4
20260506104017 10 0.0 0.0 0.10 2.39 2.11 99 1007.5
20260506103015 10 0.0 0.0 0.05 2.36 2.06 99 1007.4
20260506102113 10 0.0 0.0 0.05 2.36 2.06 99 1007.5
20260506101112 10 0.0 0.0 0.05 2.36 2.06 99 1007.4
20260506100110 10 0.0 0.0 0.03 2.34 2.03 99 1007.4
20260506095128 10 0.0 0.0 0.03 2.34 2.03 99 1007.2
20260506094105 10 0.0 3.2 0.00 2.31 2.01 99 1007.2
20260506093103 10 0.0 0.0 0.00 2.31 2.01 99 1007.1
20260506092101 10 0.0 3.2 0.00 2.31 2.01 99 1007.1
20260506091059 10 0.0 0.0 0.00 2.31 2.01 99 1007.1
20260506090057 10 0.0 3.2 0.00 2.31 2.01 99 1007.1
20260506085055 10 0.0 0.0 0.00 2.31 2.01 99 1007.0
20260506084053 10 0.0 0.0 0.00 2.31 2.01 99 1007.0
20260506083051 10 0.0 0.0 0.00 2.31 2.01 99 1006.9
20260506082049 10 270 1.6 3.2 0.03 2.31 2.01 99 1006.9
20260506081047 10 0.0 0.0 0.03 2.31 2.01 99 1006.9
20260506073039 10 68 0.0 3.2 0.13 2.31 2.01 99 1006.8
20260506072037 10 0.0 0.0 0.10 2.29 1.98 99 1006.8
20260506071035 10 0.0 3.2 0.13 2.29 1.98 99 1006.9
20260506062025 10 0.0 0.0 0.13 2.18 1.88 99 1006.7
20260506061023 10 0.0 0.0 0.13 2.16 1.85 99 1006.6
20260506051111 10 82 0.0 3.2 0.10 2.06 1.75 99 1006.6
20260506050109 10 0.0 3.2 0.15 2.06 1.75 99 1006.4
20260506045107 10 0.0 0.0 0.18 2.06 1.75 99 1006.6
20260506044105 10 0.0 0.0 0.15 2.01 1.68 99 1006.6
20260506043103 10 0.0 0.0 0.18 2.01 1.68 99 1006.7
20260506042101 10 0.0 0.0 0.18 1.98 1.65 99 1006.6
20260506041059 10 0.0 0.0 0.23 1.98 1.65 99 1006.6
20260506040057 10 0.0 0.0 0.28 1.93 1.60 99 1006.7
20260506035055 10 0.0 3.2 0.30 1.88 1.55 99 1006.8
20260506034113 10 0.0 0.0 0.36 1.88 1.52 99 1006.8
20260506033051 10 0.0 0.0 0.38 1.88 1.50 99 1006.9
20260506032109 10 0.0 0.0 0.43 1.88 1.47 99 1007.1
20260506031047 10 0.0 0.0 0.43 1.83 1.42 99 1007.1
20260506030045 10 0.0 0.0 0.36 1.78 1.32 99 1007.3
20260506025042 10 0.0 0.0 0.36 1.70 1.27 99 1007.3
20260506024040 10 0.0 0.0 0.33 1.63 1.17 99 1007.4
20260506023038 10 68 0.0 3.2 0.30 1.55 1.12 99 1007.5
20260506022036 10 0.0 0.0 0.28 1.50 1.04 99 1007.7
20260506021034 10 0.0 3.2 0.28 1.45 0.99 99 1007.6
20260506020052 10 0.0 0.0 0.28 1.42 0.97 99 1007.7
20260506015030 10 0.0 3.2 0.30 1.35 0.89 99 1007.8
20260506014048 10 0.0 0.0 0.30 1.30 0.84 99 1007.8
20260506013027 10 0.0 0.0 0.30 1.27 0.81 99 1007.8
20260506012024 10 0.0 0.0 0.33 1.22 0.79 99 1007.8
20260506011023 10 0.0 0.0 0.30 1.17 0.71 99 1007.9
20260506010020 10 0.0 0.0 0.33 1.14 0.69 98 1008.0
20260506005018 10 0.0 0.0 0.28 1.04 0.61 98 1008.1
20260506004016 10 0.0 0.0 0.23 0.99 0.53 98 1008.0
20260506003115 11 0.0 0.0 0.28 0.97 0.51 98 1008.3
20260506002112 11 0.0 0.0 0.23 0.89 0.46 98 1008.3
20260506001111 11 0.0 0.0 0.23 0.86 0.43 98 1008.4
20260506000108 11 0.0 0.0 0.20 0.81 0.36 98 1008.6
20260505235107 11 68 0.0 3.2 0.20 0.79 0.33 98 1008.7
20260505234105 11 0.0 0.0 0.20 0.76 0.30 98 1008.7
20260505233102 11 0.0 0.0 0.18 0.69 0.23 98 1008.8
20260505232120 11 0.0 0.0 0.18 0.66 0.20 98 1008.7
20260505231059 11 0.0 0.0 0.18 0.64 0.18 98 1008.8
20260505230056 11 0.0 0.0 0.15 0.61 0.15 98 1008.9
20260505225054 11 0.0 0.0 0.15 0.56 0.13 98 1008.9
20260505224113 11 90 0.0 3.2 0.15 0.53 0.10 97 1008.9
20260505223050 11 0.0 0.0 0.15 0.51 0.05 97 1009.1
20260505222048 11 0.0 0.0 0.15 0.48 0.03 97 1009.2
20260505221046 11 0.0 3.2 0.13 0.46 0.00 97 1009.1
20260505220044 11 0.0 3.2 0.15 0.46 0.00 97 1009.2
20260505215042 11 0.0 0.0 0.13 0.43 0.43 97 1009.3
20260505214040 11 68 0.0 6.4 0.10 0.38 0.38 97 1009.3
20260505213038 11 0.0 0.0 0.10 0.36 0.36 96 1009.4
20260505212056 11 0.0 0.0 0.05 0.33 0.33 96 1009.4
20260505211034 12 0.0 0.0 0.05 0.33 0.33 96 1009.5
20260505210112 12 0.0 0.0 0.05 0.30 0.30 96 1009.5
20260505205030 12 0.0 3.2 0.05 0.33 0.30 95 1009.5
20260505204048 12 0.0 0.0 0.10 0.33 0.30 95 1009.6
20260505203106 12 225 0.0 3.2 0.13 0.30 0.28 95 1009.6
20260505202024 12 113 0.0 3.2 0.13 0.30 0.28 95 1009.5
20260505201022 12 113 0.0 6.4 0.13 0.30 0.28 94 1009.5
20260505200020 12 102 1.6 9.7 0.10 0.28 0.23 94 1009.5
20260505195018 12 0.0 3.2 0.10 0.28 0.23 93 1009.5
20260505194016 12 90 0.0 3.2 0.05 0.23 0.20 92 1009.5
20260505193114 12 0.0 3.2 0.00 0.18 0.15 92 1009.6